Year,Month,Day,Hour,Minute,Value (Times are PST for insolation in W/m^2)
2018,08,03,00,00,0.00
2018,08,03,00,01,0.00
2018,08,03,00,02,0.00
2018,08,03,00,03,0.00
2018,08,03,00,04,0.00
2018,08,03,00,05,0.00
2018,08,03,00,06,0.00
2018,08,03,00,07,0.00
2018,08,03,00,08,0.00
2018,08,03,00,09,0.00
2018,08,03,00,10,0.00
2018,08,03,00,11,0.00
2018,08,03,00,12,0.00
2018,08,03,00,13,0.00
2018,08,03,00,14,0.00
2018,08,03,00,15,0.00
2018,08,03,00,16,0.00
2018,08,03,00,17,0.00
2018,08,03,00,18,0.00
2018,08,03,00,19,0.00
2018,08,03,00,20,0.00
2018,08,03,00,21,0.00
2018,08,03,00,22,0.00
2018,08,03,00,23,0.00
2018,08,03,00,24,0.00
2018,08,03,00,25,0.00
2018,08,03,00,26,0.00
2018,08,03,00,27,0.00
2018,08,03,00,28,0.00
2018,08,03,00,29,0.00
2018,08,03,00,30,0.00
2018,08,03,00,31,0.00
2018,08,03,00,32,0.00
2018,08,03,00,33,0.00
2018,08,03,00,34,0.00
2018,08,03,00,35,0.00
2018,08,03,00,36,0.00
2018,08,03,00,37,0.00
2018,08,03,00,38,0.00
2018,08,03,00,39,0.00
2018,08,03,00,40,0.00
2018,08,03,00,41,0.00
2018,08,03,00,42,0.00
2018,08,03,00,43,0.00
2018,08,03,00,44,0.00
2018,08,03,00,45,0.00
2018,08,03,00,46,0.00
2018,08,03,00,47,0.00
2018,08,03,00,48,0.00
2018,08,03,00,49,0.00
2018,08,03,00,50,0.00
2018,08,03,00,51,0.00
2018,08,03,00,52,0.00
2018,08,03,00,53,0.00
2018,08,03,00,54,0.00
2018,08,03,00,55,0.00
2018,08,03,00,56,0.00
2018,08,03,00,57,0.00
2018,08,03,00,58,0.00
2018,08,03,00,59,0.00
2018,08,03,01,00,0.00
2018,08,03,01,01,0.00
2018,08,03,01,02,0.00
2018,08,03,01,03,0.00
2018,08,03,01,04,0.00
2018,08,03,01,05,0.00
2018,08,03,01,06,0.00
2018,08,03,01,07,0.00
2018,08,03,01,08,0.00
2018,08,03,01,09,0.00
2018,08,03,01,10,0.00
2018,08,03,01,11,0.00
2018,08,03,01,12,0.00
2018,08,03,01,13,0.00
2018,08,03,01,14,0.00
2018,08,03,01,15,0.00
2018,08,03,01,16,0.00
2018,08,03,01,17,0.00
2018,08,03,01,18,0.00
2018,08,03,01,19,0.00
2018,08,03,01,20,0.00
2018,08,03,01,21,0.00
2018,08,03,01,22,0.00
2018,08,03,01,23,0.00
2018,08,03,01,24,0.00
2018,08,03,01,25,0.00
2018,08,03,01,26,0.00
2018,08,03,01,27,0.00
2018,08,03,01,28,0.00
2018,08,03,01,29,0.00
2018,08,03,01,30,0.00
2018,08,03,01,31,0.00
2018,08,03,01,32,0.00
2018,08,03,01,33,0.00
2018,08,03,01,34,0.00
2018,08,03,01,35,0.00
2018,08,03,01,36,0.00
2018,08,03,01,37,0.00
2018,08,03,01,38,0.00
2018,08,03,01,39,0.00
2018,08,03,01,40,0.00
2018,08,03,01,41,0.00
2018,08,03,01,42,0.00
2018,08,03,01,43,0.00
2018,08,03,01,44,0.00
2018,08,03,01,45,0.00
2018,08,03,01,46,0.00
2018,08,03,01,47,0.00
2018,08,03,01,48,0.00
2018,08,03,01,49,0.00
2018,08,03,01,50,0.00
2018,08,03,01,51,0.00
2018,08,03,01,52,0.00
2018,08,03,01,53,0.00
2018,08,03,01,54,0.00
2018,08,03,01,55,0.00
2018,08,03,01,56,0.00
2018,08,03,01,57,0.00
2018,08,03,01,58,0.00
2018,08,03,01,59,0.00
2018,08,03,02,00,0.00
2018,08,03,02,01,0.00
2018,08,03,02,02,0.00
2018,08,03,02,03,0.00
2018,08,03,02,04,0.00
2018,08,03,02,05,0.00
2018,08,03,02,06,0.00
2018,08,03,02,07,0.00
2018,08,03,02,08,0.00
2018,08,03,02,09,0.00
2018,08,03,02,10,0.00
2018,08,03,02,11,0.00
2018,08,03,02,12,0.00
2018,08,03,02,13,0.00
2018,08,03,02,14,0.00
2018,08,03,02,15,0.00
2018,08,03,02,16,0.00
2018,08,03,02,17,0.00
2018,08,03,02,18,0.00
2018,08,03,02,19,0.00
2018,08,03,02,20,0.00
2018,08,03,02,21,0.00
2018,08,03,02,22,0.00
2018,08,03,02,23,0.00
2018,08,03,02,24,0.00
2018,08,03,02,25,0.00
2018,08,03,02,26,0.00
2018,08,03,02,27,0.00
2018,08,03,02,28,0.00
2018,08,03,02,29,0.00
2018,08,03,02,30,0.00
2018,08,03,02,31,0.00
2018,08,03,02,32,0.00
2018,08,03,02,33,0.00
2018,08,03,02,34,0.00
2018,08,03,02,35,0.00
2018,08,03,02,36,0.00
2018,08,03,02,37,0.00
2018,08,03,02,38,0.00
2018,08,03,02,39,0.00
2018,08,03,02,40,0.00
2018,08,03,02,41,0.00
2018,08,03,02,42,0.00
2018,08,03,02,43,0.00
2018,08,03,02,44,0.00
2018,08,03,02,45,0.00
2018,08,03,02,46,0.00
2018,08,03,02,47,0.00
2018,08,03,02,48,0.00
2018,08,03,02,49,0.00
2018,08,03,02,50,0.00
2018,08,03,02,51,0.00
2018,08,03,02,52,0.00
2018,08,03,02,53,0.00
2018,08,03,02,54,0.00
2018,08,03,02,55,0.00
2018,08,03,02,56,0.00
2018,08,03,02,57,0.00
2018,08,03,02,58,0.00
2018,08,03,02,59,0.00
2018,08,03,03,00,0.00
2018,08,03,03,01,0.00
2018,08,03,03,02,0.00
2018,08,03,03,03,0.00
2018,08,03,03,04,0.00
2018,08,03,03,05,0.00
2018,08,03,03,06,0.00
2018,08,03,03,07,0.00
2018,08,03,03,08,0.00
2018,08,03,03,09,0.00
2018,08,03,03,10,0.00
2018,08,03,03,11,0.00
2018,08,03,03,12,0.00
2018,08,03,03,13,0.00
2018,08,03,03,14,0.00
2018,08,03,03,15,0.00
2018,08,03,03,16,0.00
2018,08,03,03,17,0.00
2018,08,03,03,18,0.00
2018,08,03,03,19,0.00
2018,08,03,03,20,0.00
2018,08,03,03,21,0.00
2018,08,03,03,22,0.00
2018,08,03,03,23,0.00
2018,08,03,03,24,0.00
2018,08,03,03,25,0.00
2018,08,03,03,26,0.00
2018,08,03,03,27,0.00
2018,08,03,03,28,0.00
2018,08,03,03,29,0.00
2018,08,03,03,30,0.00
2018,08,03,03,31,0.00
2018,08,03,03,32,0.00
2018,08,03,03,33,0.00
2018,08,03,03,34,0.00
2018,08,03,03,35,0.00
2018,08,03,03,36,0.00
2018,08,03,03,37,0.00
2018,08,03,03,38,0.00
2018,08,03,03,39,0.00
2018,08,03,03,40,0.00
2018,08,03,03,41,0.00
2018,08,03,03,42,0.00
2018,08,03,03,43,0.00
2018,08,03,03,44,0.00
2018,08,03,03,45,0.00
2018,08,03,03,46,0.00
2018,08,03,03,47,0.00
2018,08,03,03,48,0.00
2018,08,03,03,49,0.00
2018,08,03,03,50,0.00
2018,08,03,03,51,0.00
2018,08,03,03,52,0.00
2018,08,03,03,53,0.00
2018,08,03,03,54,0.00
2018,08,03,03,55,0.00
2018,08,03,03,56,0.00
2018,08,03,03,57,0.00
2018,08,03,03,58,0.00
2018,08,03,03,59,0.00
2018,08,03,04,00,0.00
2018,08,03,04,01,0.00
2018,08,03,04,02,0.00
2018,08,03,04,03,0.00
2018,08,03,04,04,0.00
2018,08,03,04,05,0.00
2018,08,03,04,06,0.00
2018,08,03,04,07,0.00
2018,08,03,04,08,0.00
2018,08,03,04,09,0.00
2018,08,03,04,10,0.00
2018,08,03,04,11,0.00
2018,08,03,04,12,0.00
2018,08,03,04,13,0.00
2018,08,03,04,14,0.00
2018,08,03,04,15,0.00
2018,08,03,04,16,0.00
2018,08,03,04,17,0.00
2018,08,03,04,18,0.00
2018,08,03,04,19,0.00
2018,08,03,04,20,0.00
2018,08,03,04,21,0.00
2018,08,03,04,22,0.00
2018,08,03,04,23,0.00
2018,08,03,04,24,0.00
2018,08,03,04,25,0.00
2018,08,03,04,26,0.00
2018,08,03,04,27,0.00
2018,08,03,04,28,0.00
2018,08,03,04,29,0.00
2018,08,03,04,30,0.00
2018,08,03,04,31,0.00
2018,08,03,04,32,0.00
2018,08,03,04,33,0.00
2018,08,03,04,34,0.00
2018,08,03,04,35,0.00
2018,08,03,04,36,0.00
2018,08,03,04,37,0.00
2018,08,03,04,38,0.00
2018,08,03,04,39,0.00
2018,08,03,04,40,0.00
2018,08,03,04,41,0.00
2018,08,03,04,42,0.00
2018,08,03,04,43,0.00
2018,08,03,04,44,0.00
2018,08,03,04,45,0.00
2018,08,03,04,46,0.00
2018,08,03,04,47,0.00
2018,08,03,04,48,0.00
2018,08,03,04,49,0.00
2018,08,03,04,50,0.00
2018,08,03,04,51,0.00
2018,08,03,04,52,0.00
2018,08,03,04,53,0.00
2018,08,03,04,54,0.00
2018,08,03,04,55,0.00
2018,08,03,04,56,0.00
2018,08,03,04,57,0.00
2018,08,03,04,58,0.00
2018,08,03,04,59,0.00
2018,08,03,05,00,0.00
2018,08,03,05,01,0.00
2018,08,03,05,02,0.00
2018,08,03,05,03,0.00
2018,08,03,05,04,0.00
2018,08,03,05,05,0.00
2018,08,03,05,06,0.00
2018,08,03,05,07,0.00
2018,08,03,05,08,0.00
2018,08,03,05,09,0.00
2018,08,03,05,10,0.00
2018,08,03,05,11,0.00
2018,08,03,05,12,0.00
2018,08,03,05,13,0.00
2018,08,03,05,14,0.00
2018,08,03,05,15,0.00
2018,08,03,05,16,0.00
2018,08,03,05,17,0.00
2018,08,03,05,18,0.00
2018,08,03,05,19,0.00
2018,08,03,05,20,0.00
2018,08,03,05,21,0.00
2018,08,03,05,22,0.00
2018,08,03,05,23,0.00
2018,08,03,05,24,0.00
2018,08,03,05,25,0.00
2018,08,03,05,26,0.00
2018,08,03,05,27,0.00
2018,08,03,05,28,0.00
2018,08,03,05,29,0.00
2018,08,03,05,30,0.00
2018,08,03,05,31,0.00
2018,08,03,05,32,0.00
2018,08,03,05,33,0.00
2018,08,03,05,34,0.00
2018,08,03,05,35,0.00
2018,08,03,05,36,0.00
2018,08,03,05,37,0.00
2018,08,03,05,38,0.00
2018,08,03,05,39,0.00
2018,08,03,05,40,0.00
2018,08,03,05,41,0.00
2018,08,03,05,42,0.00
2018,08,03,05,43,0.00
2018,08,03,05,44,0.00
2018,08,03,05,45,0.00
2018,08,03,05,46,0.00
2018,08,03,05,47,0.00
2018,08,03,05,48,0.00
2018,08,03,05,49,0.00
2018,08,03,05,50,0.00
2018,08,03,05,51,0.00
2018,08,03,05,52,0.00
2018,08,03,05,53,0.00
2018,08,03,05,54,0.00
2018,08,03,05,55,0.00
2018,08,03,05,56,0.00
2018,08,03,05,57,0.00
2018,08,03,05,58,0.00
2018,08,03,05,59,0.00
2018,08,03,06,00,0.00
2018,08,03,06,01,0.00
2018,08,03,06,02,0.00
2018,08,03,06,03,0.00
2018,08,03,06,04,5.00
2018,08,03,06,05,5.00
2018,08,03,06,06,5.00
2018,08,03,06,07,5.00
2018,08,03,06,08,5.00
2018,08,03,06,09,5.00
2018,08,03,06,10,5.10
2018,08,03,06,11,7.00
2018,08,03,06,12,7.00
2018,08,03,06,13,7.00
2018,08,03,06,14,7.00
2018,08,03,06,15,7.00
2018,08,03,06,16,8.50
2018,08,03,06,17,9.00
2018,08,03,06,18,9.00
2018,08,03,06,19,9.00
2018,08,03,06,20,9.00
2018,08,03,06,21,9.00
2018,08,03,06,22,9.00
2018,08,03,06,23,10.50
2018,08,03,06,24,11.00
2018,08,03,06,25,11.00
2018,08,03,06,26,11.30
2018,08,03,06,27,12.00
2018,08,03,06,28,12.00
2018,08,03,06,29,12.00
2018,08,03,06,30,13.50
2018,08,03,06,31,14.00
2018,08,03,06,32,14.20
2018,08,03,06,33,16.00
2018,08,03,06,34,16.80
2018,08,03,06,35,18.00
2018,08,03,06,36,18.00
2018,08,03,06,37,18.00
2018,08,03,06,38,18.00
2018,08,03,06,39,18.00
2018,08,03,06,40,18.00
2018,08,03,06,41,18.00
2018,08,03,06,42,18.00
2018,08,03,06,43,18.00
2018,08,03,06,44,16.50
2018,08,03,06,45,16.00
2018,08,03,06,46,16.00
2018,08,03,06,47,16.00
2018,08,03,06,48,16.00
2018,08,03,06,49,16.00
2018,08,03,06,50,16.00
2018,08,03,06,51,16.00
2018,08,03,06,52,16.00
2018,08,03,06,53,16.00
2018,08,03,06,54,16.00
2018,08,03,06,55,16.00
2018,08,03,06,56,17.00
2018,08,03,06,57,18.00
2018,08,03,06,58,18.00
2018,08,03,06,59,18.00
2018,08,03,07,00,18.00
2018,08,03,07,01,18.00
2018,08,03,07,02,18.00
2018,08,03,07,03,18.00
2018,08,03,07,04,18.70
2018,08,03,07,05,19.00
2018,08,03,07,06,19.00
2018,08,03,07,07,19.00
2018,08,03,07,08,19.60
2018,08,03,07,09,21.00
2018,08,03,07,10,21.00
2018,08,03,07,11,21.00
2018,08,03,07,12,22.50
2018,08,03,07,13,23.00
2018,08,03,07,14,23.30
2018,08,03,07,15,25.00
2018,08,03,07,16,25.00
2018,08,03,07,17,25.00
2018,08,03,07,18,25.00
2018,08,03,07,19,25.00
2018,08,03,07,20,25.90
2018,08,03,07,21,26.30
2018,08,03,07,22,28.00
2018,08,03,07,23,28.80
2018,08,03,07,24,31.10
2018,08,03,07,25,32.00
2018,08,03,07,26,32.00
2018,08,03,07,27,32.00
2018,08,03,07,28,32.20
2018,08,03,07,29,33.50
2018,08,03,07,30,35.80
2018,08,03,07,31,38.00
2018,08,03,07,32,39.70
2018,08,03,07,33,43.10
2018,08,03,07,34,48.60
2018,08,03,07,35,54.70
2018,08,03,07,36,61.30
2018,08,03,07,37,65.80
2018,08,03,07,38,68.10
2018,08,03,07,39,69.00
2018,08,03,07,40,69.00
2018,08,03,07,41,69.00
2018,08,03,07,42,69.20
2018,08,03,07,43,70.00
2018,08,03,07,44,70.80
2018,08,03,07,45,71.00
2018,08,03,07,46,69.30
2018,08,03,07,47,69.80
2018,08,03,07,48,70.00
2018,08,03,07,49,69.00
2018,08,03,07,50,69.30
2018,08,03,07,51,70.00
2018,08,03,07,52,70.00
2018,08,03,07,53,71.30
2018,08,03,07,54,72.00
2018,08,03,07,55,72.00
2018,08,03,07,56,72.00
2018,08,03,07,57,72.50
2018,08,03,07,58,74.80
2018,08,03,07,59,77.50
2018,08,03,08,00,79.00
2018,08,03,08,01,79.00
2018,08,03,08,02,80.80
2018,08,03,08,03,81.00
2018,08,03,08,04,81.00
2018,08,03,08,05,81.00
2018,08,03,08,06,81.00
2018,08,03,08,07,81.00
2018,08,03,08,08,81.00
2018,08,03,08,09,82.80
2018,08,03,08,10,84.30
2018,08,03,08,11,86.00
2018,08,03,08,12,86.80
2018,08,03,08,13,88.00
2018,08,03,08,14,86.70
2018,08,03,08,15,84.50
2018,08,03,08,16,84.00
2018,08,03,08,17,83.90
2018,08,03,08,18,83.30
2018,08,03,08,19,84.00
2018,08,03,08,20,84.00
2018,08,03,08,21,83.40
2018,08,03,08,22,83.00
2018,08,03,08,23,81.20
2018,08,03,08,24,81.00
2018,08,03,08,25,81.00
2018,08,03,08,26,81.80
2018,08,03,08,27,83.50
2018,08,03,08,28,85.30
2018,08,03,08,29,87.50
2018,08,03,08,30,89.80
2018,08,03,08,31,91.00
2018,08,03,08,32,91.50
2018,08,03,08,33,93.80
2018,08,03,08,34,95.00
2018,08,03,08,35,95.00
2018,08,03,08,36,96.50
2018,08,03,08,37,97.90
2018,08,03,08,38,98.20
2018,08,03,08,39,100.50
2018,08,03,08,40,102.80
2018,08,03,08,41,104.00
2018,08,03,08,42,104.00
2018,08,03,08,43,104.80
2018,08,03,08,44,106.80
2018,08,03,08,45,107.30
2018,08,03,08,46,109.00
2018,08,03,08,47,109.00
2018,08,03,08,48,109.00
2018,08,03,08,49,107.70
2018,08,03,08,50,107.00
2018,08,03,08,51,105.20
2018,08,03,08,52,105.30
2018,08,03,08,53,107.00
2018,08,03,08,54,107.80
2018,08,03,08,55,109.00
2018,08,03,08,56,109.00
2018,08,03,08,57,109.00
2018,08,03,08,58,110.80
2018,08,03,08,59,113.00
2018,08,03,09,00,113.00
2018,08,03,09,01,113.00
2018,08,03,09,02,113.00
2018,08,03,09,03,110.40
2018,08,03,09,04,107.50
2018,08,03,09,05,107.00
2018,08,03,09,06,107.60
2018,08,03,09,07,111.80
2018,08,03,09,08,116.40
2018,08,03,09,09,120.50
2018,08,03,09,10,126.90
2018,08,03,09,11,127.70
2018,08,03,09,12,127.00
2018,08,03,09,13,127.00
2018,08,03,09,14,126.50
2018,08,03,09,15,124.20
2018,08,03,09,16,123.00
2018,08,03,09,17,121.70
2018,08,03,09,18,118.70
2018,08,03,09,19,107.90
2018,08,03,09,20,104.80
2018,08,03,09,21,105.90
2018,08,03,09,22,111.00
2018,08,03,09,23,106.20
2018,08,03,09,24,100.70
2018,08,03,09,25,103.80
2018,08,03,09,26,106.80
2018,08,03,09,27,114.30
2018,08,03,09,28,117.90
2018,08,03,09,29,126.60
2018,08,03,09,30,132.00
2018,08,03,09,31,128.70
2018,08,03,09,32,127.00
2018,08,03,09,33,127.00
2018,08,03,09,34,131.10
2018,08,03,09,35,139.40
2018,08,03,09,36,146.00
2018,08,03,09,37,145.00
2018,08,03,09,38,142.20
2018,08,03,09,39,146.40
2018,08,03,09,40,158.60
2018,08,03,09,41,159.70
2018,08,03,09,42,161.10
2018,08,03,09,43,170.20
2018,08,03,09,44,170.50
2018,08,03,09,45,164.40
2018,08,03,09,46,162.00
2018,08,03,09,47,162.00
2018,08,03,09,48,163.30
2018,08,03,09,49,167.00
2018,08,03,09,50,172.80
2018,08,03,09,51,174.00
2018,08,03,09,52,176.60
2018,08,03,09,53,178.00
2018,08,03,09,54,171.60
2018,08,03,09,55,161.10
2018,08,03,09,56,155.20
2018,08,03,09,57,152.20
2018,08,03,09,58,153.20
2018,08,03,09,59,158.20
2018,08,03,10,00,158.50
2018,08,03,10,01,138.50
2018,08,03,10,02,111.50
2018,08,03,10,03,95.80
2018,08,03,10,04,89.20
2018,08,03,10,05,93.00
2018,08,03,10,06,106.50
2018,08,03,10,07,103.80
2018,08,03,10,08,102.00
2018,08,03,10,09,118.20
2018,08,03,10,10,132.00
2018,08,03,10,11,134.30
2018,08,03,10,12,126.50
2018,08,03,10,13,121.70
2018,08,03,10,14,115.40
2018,08,03,10,15,114.00
2018,08,03,10,16,117.70
2018,08,03,10,17,129.20
2018,08,03,10,18,137.80
2018,08,03,10,19,141.50
2018,08,03,10,20,147.50
2018,08,03,10,21,168.70
2018,08,03,10,22,179.80
2018,08,03,10,23,171.00
2018,08,03,10,24,166.70
2018,08,03,10,25,148.80
2018,08,03,10,26,135.20
2018,08,03,10,27,141.50
2018,08,03,10,28,159.10
2018,08,03,10,29,175.90
2018,08,03,10,30,169.00
2018,08,03,10,31,163.30
2018,08,03,10,32,143.00
2018,08,03,10,33,134.50
2018,08,03,10,34,134.70
2018,08,03,10,35,127.40
2018,08,03,10,36,121.50
2018,08,03,10,37,123.00
2018,08,03,10,38,120.30
2018,08,03,10,39,113.00
2018,08,03,10,40,114.60
2018,08,03,10,41,111.50
2018,08,03,10,42,126.70
2018,08,03,10,43,136.40
2018,08,03,10,44,158.30
2018,08,03,10,45,160.50
2018,08,03,10,46,171.60
2018,08,03,10,47,196.00
2018,08,03,10,48,212.50
2018,08,03,10,49,212.20
2018,08,03,10,50,212.80
2018,08,03,10,51,217.40
2018,08,03,10,52,236.30
2018,08,03,10,53,232.80
2018,08,03,10,54,219.70
2018,08,03,10,55,206.20
2018,08,03,10,56,196.60
2018,08,03,10,57,192.20
2018,08,03,10,58,192.80
2018,08,03,10,59,193.90
2018,08,03,11,00,200.20
2018,08,03,11,01,200.90
2018,08,03,11,02,202.60
2018,08,03,11,03,206.30
2018,08,03,11,04,208.90
2018,08,03,11,05,213.20
2018,08,03,11,06,214.60
2018,08,03,11,07,216.80
2018,08,03,11,08,220.50
2018,08,03,11,09,221.70
2018,08,03,11,10,218.70
2018,08,03,11,11,214.30
2018,08,03,11,12,210.40
2018,08,03,11,13,206.70
2018,08,03,11,14,207.90
2018,08,03,11,15,213.60
2018,08,03,11,16,219.10
2018,08,03,11,17,218.70
2018,08,03,11,18,214.50
2018,08,03,11,19,216.50
2018,08,03,11,20,221.90
2018,08,03,11,21,228.90
2018,08,03,11,22,232.00
2018,08,03,11,23,228.90
2018,08,03,11,24,222.40
2018,08,03,11,25,220.20
2018,08,03,11,26,222.10
2018,08,03,11,27,231.60
2018,08,03,11,28,235.20
2018,08,03,11,29,230.20
2018,08,03,11,30,221.20
2018,08,03,11,31,214.90
2018,08,03,11,32,214.10
2018,08,03,11,33,216.80
2018,08,03,11,34,222.00
2018,08,03,11,35,223.50
2018,08,03,11,36,220.50
2018,08,03,11,37,220.70
2018,08,03,11,38,224.10
2018,08,03,11,39,226.80
2018,08,03,11,40,228.80
2018,08,03,11,41,225.90
2018,08,03,11,42,222.20
2018,08,03,11,43,223.20
2018,08,03,11,44,228.20
2018,08,03,11,45,233.10
2018,08,03,11,46,236.80
2018,08,03,11,47,241.00
2018,08,03,11,48,239.60
2018,08,03,11,49,233.30
2018,08,03,11,50,225.80
2018,08,03,11,51,219.70
2018,08,03,11,52,214.20
2018,08,03,11,53,206.80
2018,08,03,11,54,204.30
2018,08,03,11,55,209.20
2018,08,03,11,56,221.60
2018,08,03,11,57,229.50
2018,08,03,11,58,232.00
2018,08,03,11,59,229.70
2018,08,03,12,00,229.90
2018,08,03,12,01,229.80
2018,08,03,12,02,232.70
2018,08,03,12,03,226.50
2018,08,03,12,04,225.10
2018,08,03,12,05,230.30
2018,08,03,12,06,232.00
2018,08,03,12,07,230.20
2018,08,03,12,08,218.20
2018,08,03,12,09,217.00
2018,08,03,12,10,205.50
2018,08,03,12,11,199.50
2018,08,03,12,12,208.00
2018,08,03,12,13,225.30
2018,08,03,12,14,231.70
2018,08,03,12,15,235.10
2018,08,03,12,16,238.50
2018,08,03,12,17,227.80
2018,08,03,12,18,217.00
2018,08,03,12,19,213.70
2018,08,03,12,20,217.00
2018,08,03,12,21,216.20
2018,08,03,12,22,212.80
2018,08,03,12,23,202.50
2018,08,03,12,24,189.00
2018,08,03,12,25,177.00
2018,08,03,12,26,157.90
2018,08,03,12,27,137.40
2018,08,03,12,28,134.90
2018,08,03,12,29,120.50
2018,08,03,12,30,116.10
2018,08,03,12,31,114.60
2018,08,03,12,32,125.00
2018,08,03,12,33,119.50
2018,08,03,12,34,126.80
2018,08,03,12,35,142.00
2018,08,03,12,36,136.90
2018,08,03,12,37,139.70
2018,08,03,12,38,104.40
2018,08,03,12,39,92.20
2018,08,03,12,40,83.50
2018,08,03,12,41,79.50
2018,08,03,12,42,79.10
2018,08,03,12,43,82.50
2018,08,03,12,44,94.90
2018,08,03,12,45,115.40
2018,08,03,12,46,139.50
2018,08,03,12,47,166.50
2018,08,03,12,48,208.80
2018,08,03,12,49,251.70
2018,08,03,12,50,283.90
2018,08,03,12,51,321.40
2018,08,03,12,52,386.50
2018,08,03,12,53,448.00
2018,08,03,12,54,342.70
2018,08,03,12,55,287.00
2018,08,03,12,56,291.40
2018,08,03,12,57,248.40
2018,08,03,12,58,232.50
2018,08,03,12,59,220.30
2018,08,03,13,00,219.80
2018,08,03,13,01,231.30
2018,08,03,13,02,242.20
2018,08,03,13,03,244.00
2018,08,03,13,04,242.10
2018,08,03,13,05,235.10
2018,08,03,13,06,228.00
2018,08,03,13,07,225.00
2018,08,03,13,08,228.30
2018,08,03,13,09,231.50
2018,08,03,13,10,227.00
2018,08,03,13,11,216.60
2018,08,03,13,12,202.20
2018,08,03,13,13,186.40
2018,08,03,13,14,171.20
2018,08,03,13,15,150.20
2018,08,03,13,16,127.20
2018,08,03,13,17,121.20
2018,08,03,13,18,120.50
2018,08,03,13,19,118.00
2018,08,03,13,20,115.20
2018,08,03,13,21,109.00
2018,08,03,13,22,111.60
2018,08,03,13,23,119.40
2018,08,03,13,24,133.90
2018,08,03,13,25,166.40
2018,08,03,13,26,140.50
2018,08,03,13,27,148.20
2018,08,03,13,28,163.00
2018,08,03,13,29,163.00
2018,08,03,13,30,194.20
2018,08,03,13,31,191.50
2018,08,03,13,32,190.60
2018,08,03,13,33,219.10
2018,08,03,13,34,227.00
2018,08,03,13,35,300.80
2018,08,03,13,36,364.00
2018,08,03,13,37,228.60
2018,08,03,13,38,181.30
2018,08,03,13,39,169.00
2018,08,03,13,40,171.70
2018,08,03,13,41,181.30
2018,08,03,13,42,183.90
2018,08,03,13,43,184.90
2018,08,03,13,44,190.60
2018,08,03,13,45,192.00
2018,08,03,13,46,196.40
2018,08,03,13,47,205.90
2018,08,03,13,48,214.60
2018,08,03,13,49,223.50
2018,08,03,13,50,224.40
2018,08,03,13,51,220.70
2018,08,03,13,52,220.90
2018,08,03,13,53,218.60
2018,08,03,13,54,207.20
2018,08,03,13,55,194.20
2018,08,03,13,56,191.50
2018,08,03,13,57,194.30
2018,08,03,13,58,198.10
2018,08,03,13,59,199.00
2018,08,03,14,00,209.50
2018,08,03,14,01,229.80
2018,08,03,14,02,227.80
2018,08,03,14,03,212.90
2018,08,03,14,04,203.40
2018,08,03,14,05,205.80
2018,08,03,14,06,216.70
2018,08,03,14,07,224.40
2018,08,03,14,08,222.10
2018,08,03,14,09,224.20
2018,08,03,14,10,226.10
2018,08,03,14,11,234.20
2018,08,03,14,12,252.40
2018,08,03,14,13,257.00
2018,08,03,14,14,486.10
2018,08,03,14,15,555.40
2018,08,03,14,16,608.90
2018,08,03,14,17,652.00
2018,08,03,14,18,652.00
2018,08,03,14,19,912.00
2018,08,03,14,20,962.10
2018,08,03,14,21,264.80
2018,08,03,14,22,273.70
2018,08,03,14,23,280.20
2018,08,03,14,24,280.00
2018,08,03,14,25,274.80
2018,08,03,14,26,271.80
2018,08,03,14,27,297.70
2018,08,03,14,28,301.00
2018,08,03,14,29,353.80
2018,08,03,14,30,478.20
2018,08,03,14,31,450.00
2018,08,03,14,32,450.00
2018,08,03,14,33,450.00
2018,08,03,14,34,291.80
2018,08,03,14,35,260.20
2018,08,03,14,36,264.40
2018,08,03,14,37,278.60
2018,08,03,14,38,334.00
2018,08,03,14,39,349.20
2018,08,03,14,40,314.80
2018,08,03,14,41,267.60
2018,08,03,14,42,270.30
2018,08,03,14,43,245.70
2018,08,03,14,44,241.60
2018,08,03,14,45,253.00
2018,08,03,14,46,253.00
2018,08,03,14,47,253.00
2018,08,03,14,48,253.00
2018,08,03,14,49,357.60
2018,08,03,14,50,933.00
2018,08,03,14,51,933.00
2018,08,03,14,52,597.10
2018,08,03,14,53,287.00
2018,08,03,14,54,287.00
2018,08,03,14,55,665.10
2018,08,03,14,56,715.80
2018,08,03,14,57,815.30
2018,08,03,14,58,827.00
2018,08,03,14,59,838.00
2018,08,03,15,00,838.00
2018,08,03,15,01,412.60
2018,08,03,15,02,318.60
2018,08,03,15,03,351.20
2018,08,03,15,04,498.20
2018,08,03,15,05,484.20
2018,08,03,15,06,494.00
2018,08,03,15,07,494.00
2018,08,03,15,08,724.00
2018,08,03,15,09,806.40
2018,08,03,15,10,788.50
2018,08,03,15,11,784.00
2018,08,03,15,12,772.80
2018,08,03,15,13,766.50
2018,08,03,15,14,770.00
2018,08,03,15,15,772.30
2018,08,03,15,16,782.70
2018,08,03,15,17,805.00
2018,08,03,15,18,805.00
2018,08,03,15,19,805.00
2018,08,03,15,20,546.50
2018,08,03,15,21,291.90
2018,08,03,15,22,305.50
2018,08,03,15,23,330.20
2018,08,03,15,24,328.50
2018,08,03,15,25,352.40
2018,08,03,15,26,302.00
2018,08,03,15,27,305.80
2018,08,03,15,28,307.10
2018,08,03,15,29,318.30
2018,08,03,15,30,315.90
2018,08,03,15,31,314.30
2018,08,03,15,32,292.30
2018,08,03,15,33,285.30
2018,08,03,15,34,282.10
2018,08,03,15,35,328.10
2018,08,03,15,36,352.00
2018,08,03,15,37,351.70
2018,08,03,15,38,343.00
2018,08,03,15,39,343.00
2018,08,03,15,40,575.30
2018,08,03,15,41,896.90
2018,08,03,15,42,854.00
2018,08,03,15,43,487.80
2018,08,03,15,44,378.00
2018,08,03,15,45,371.80
2018,08,03,15,46,338.00
2018,08,03,15,47,338.00
2018,08,03,15,48,338.00
2018,08,03,15,49,388.30
2018,08,03,15,50,415.00
2018,08,03,15,51,691.90
2018,08,03,15,52,752.60
2018,08,03,15,53,743.70
2018,08,03,15,54,739.20
2018,08,03,15,55,736.50
2018,08,03,15,56,740.90
2018,08,03,15,57,777.40
2018,08,03,15,58,788.00
2018,08,03,15,59,766.30
2018,08,03,16,00,650.20
2018,08,03,16,01,681.00
2018,08,03,16,02,715.50
2018,08,03,16,03,715.70
2018,08,03,16,04,712.70
2018,08,03,16,05,710.20
2018,08,03,16,06,705.50
2018,08,03,16,07,707.70
2018,08,03,16,08,704.50
2018,08,03,16,09,706.70
2018,08,03,16,10,715.10
2018,08,03,16,11,727.80
2018,08,03,16,12,662.90
2018,08,03,16,13,704.80
2018,08,03,16,14,723.60
2018,08,03,16,15,718.60
2018,08,03,16,16,721.00
2018,08,03,16,17,636.70
2018,08,03,16,18,592.00
2018,08,03,16,19,638.90
2018,08,03,16,20,645.00
2018,08,03,16,21,645.00
2018,08,03,16,22,691.50
2018,08,03,16,23,766.00
2018,08,03,16,24,766.00
2018,08,03,16,25,766.00
2018,08,03,16,26,348.50
2018,08,03,16,27,393.50
2018,08,03,16,28,418.50
2018,08,03,16,29,390.00
2018,08,03,16,30,629.00
2018,08,03,16,31,868.00
2018,08,03,16,32,434.00
2018,08,03,16,33,276.70
2018,08,03,16,34,286.50
2018,08,03,16,35,296.10
2018,08,03,16,36,304.60
2018,08,03,16,37,296.00
2018,08,03,16,38,284.90
2018,08,03,16,39,261.10
2018,08,03,16,40,256.70
2018,08,03,16,41,243.10
2018,08,03,16,42,214.50
2018,08,03,16,43,194.00
2018,08,03,16,44,186.40
2018,08,03,16,45,180.50
2018,08,03,16,46,171.30
2018,08,03,16,47,160.70
2018,08,03,16,48,145.20
2018,08,03,16,49,165.20
2018,08,03,16,50,182.60
2018,08,03,16,51,244.00
2018,08,03,16,52,273.80
2018,08,03,16,53,238.10
2018,08,03,16,54,277.90
2018,08,03,16,55,218.50
2018,08,03,16,56,200.00
2018,08,03,16,57,199.60
2018,08,03,16,58,205.20
2018,08,03,16,59,220.80
2018,08,03,17,00,266.20
2018,08,03,17,01,287.70
2018,08,03,17,02,529.00
2018,08,03,17,03,493.50
2018,08,03,17,04,368.50
2018,08,03,17,05,331.30
2018,08,03,17,06,339.00
2018,08,03,17,07,415.90
2018,08,03,17,08,488.50
2018,08,03,17,09,479.00
2018,08,03,17,10,554.20
2018,08,03,17,11,596.50
2018,08,03,17,12,553.60
2018,08,03,17,13,533.10